User: anonymous   Login
Location: Codford Saint Peter
(51.1597°N, 2.0531°W)
Time: 06:34:44
(UTC+00:00)
Language:

Cosmos 2298 Rocket - Orbit

View from above orbital plane
View from above orbital plane
View from above satellite
View from above satellite

Ground track
Ground track

The orbit data is extracted from the following two-line orbital elements,

1 23432U 94083B   20339.20539810  .00000000  00000-0  94960-5 0  9996
2 23432  74.0305 142.7389 0004683  34.4930 138.6282 14.33546997357717
Epoch (UTC): 04 December 2020 04:55:46
Eccentricity: 0.0004683
inclination: 74.0305°
perigee height: 776 km
apogee height: 783 km
right ascension of ascending node: 142.7389°
argument of perigee: 34.4930°
revolutions per day: 14.33546997
mean anomaly at epoch: 138.6282°
orbit number at epoch: 35771

The dashed part of the orbit path shows where the satellite is in the earth's shadow,  

DLR